Location: Malvern Link
(52.1333°N, 2.3000°W)
Time: 19:10:14
(UTC+00:00)

ERS-1 Rocket - Pass Details

Date: 18 September 2020
Orbit: 754 x 757 km, 98.5° (Epoch: 22 October)

Event Time Altitude Azimuth Distance (km) Brightness Sun altitude
Exits shadow 20:57:23 45° 66° (ENE) 1,026 3.4 -23.8°
Drops below altitude 10° 21:02:11 10° 355° (N) 2,297 6.0 -24.4°
Sets 21:04:34 0° 349° (N) 3,227 7.0 -24.7°
